Location: Watson Lake
(60.1170°N, 128.8000°W)
Time: 03:25:27
(UTC-07:00)

Daily predictions for brighter satellites

Satellite Brightness Start Highest point End
(mag) Time Altitude Azimuth Time Altitude Azimuth Time Altitude Azimuth
Cosmos 2278 4.3 00:03:09 10° NW 00:08:03 49° W 00:08:03 49° W
Cosmos 1733 Rocket 4.4 00:04:30 10° N 00:07:24 38° N 00:07:24 38° N
Cosmos 1709 Rocket 4.0 00:03:37 10° NNW 00:09:39 69° ENE 00:09:39 69° ENE
Cosmos 1553 Rocket 4.0 00:10:58 67° ENE 00:10:58 67° ENE 00:16:32 10° NNE
S3M 4.0 00:11:30 71° ENE 00:11:30 71° ENE 00:17:31 10° NNE
Cosmos 1745 Rocket 4.0 00:05:40 10° NNW 00:11:58 71° W 00:12:04 71° WSW
Cosmos 2322 Rocket 2.8 00:08:19 10° NW 00:13:52 48° NE 00:14:17 47° NE
Cosmos 1607 4.4 00:09:02 10° WNW 00:15:06 56° N 00:17:30 35° ENE
CZ-4 R/B 4.5 00:11:59 10° NNE 00:16:13 56° NNW 00:16:13 56° NNW
ALOS 2 4.0 00:21:17 37° N 00:21:17 37° N 00:24:03 10° NNW
COSMOS 2428 4.3 00:15:06 10° NW 00:20:10 31° NNE 00:24:04 15° ENE
CENTAUR R/B 2.6 00:20:43 43° WSW 00:23:15 88° NNW 00:30:50 10° ENE
Cosmos 2237 Rocket 4.1 00:19:28 10° WNW 00:24:19 28° N 00:29:09 10° ENE
NOSS 3-2 (C) 3.9 00:18:29 10° W 00:25:08 69° N 00:32:33 10° ENE
CZ-4B R/B 4.3 00:29:21 18° N 00:29:21 18° N 00:30:21 10° N
Cosmos 1697 Rocket 3.1 00:21:48 10° NW 00:26:22 57° WNW 00:26:22 57° WNW
SeaSat 1 4.0 00:24:55 10° NE 00:29:22 34° NNW 00:33:47 10° W
Cosmos 1417 Rocket 4.5 00:29:35 77° WNW 00:29:35 77° WNW 00:35:46 10° NNE
ATLAS 5 CENTAUR R/B 2.7 00:24:53 10° W 00:37:20 - ENE 00:29:05 53° WNW
Cosmos 2082 Rocket 4.1 00:33:30 18° ENE 00:33:30 18° ENE 00:35:21 10° NE
USA 215 3.9 00:39:46 42° WSW 00:39:46 42° WSW 00:43:58 10° W
SL-16 R/B 4.1 00:38:35 10° WNW 00:43:29 28° N 00:48:24 10° NE
Cosmos 2074 Rocket 4.2 00:39:52 10° N 00:45:52 62° ENE 00:45:52 62° ENE
CZ-2C R/B 4.2 00:42:53 10° NNE 00:46:25 27° ENE 00:46:25 27° ENE
Cosmos 2315 Rocket 4.3 00:54:18 58° ENE 00:54:18 58° ENE 00:59:54 10° NNE
CZ-2C R/B 3.7 00:54:51 59° NE 00:54:51 59° NE 01:00:01 10° NNW
Cosmos 2219 Rocket 3.8 00:58:41 10° NW 01:03:44 31° NNE 01:08:47 10° ENE
Cosmos 2360 Rocket 2.9 00:59:12 10° NW 01:04:43 47° NE 01:05:06 46° NE
Cosmos 1980 Rocket 3.0 00:59:13 10° NW 01:03:16 45° WNW 01:03:16 45° WNW
Cosmos 1763 Rocket 4.3 01:03:42 10° NNW 01:07:50 48° N 01:07:50 48° N
Cosmos 2322 4.4 01:05:48 10° NW 01:11:19 48° NE 01:11:37 48° NE
Cosmos 407 Rocket 4.4 01:20:27 47° NNE 01:20:27 47° NNE 01:24:14 10° NNE
ATLAS 3B R/B 2.7 01:14:13 10° WNW 01:20:59 78° WNW 01:20:59 78° WNW
Cosmos 1833 Rocket 4.0 01:23:51 30° ENE 01:23:51 30° ENE 01:27:02 10° NE
Terra 4.4 01:23:37 11° WNW 01:23:37 11° WNW 01:24:47 10° WNW
COSMOS 2455 3.1 01:18:37 10° NW 01:24:35 65° NNE 01:24:35 65° NNE
SL-16 R/B 4.5 01:21:16 10° E 01:26:04 24° NE 01:30:54 10° NNW
Cosmos 2184 Rocket 4.1 01:20:04 10° NNW 01:25:47 73° NNW 01:25:47 73° NNW
Cosmos 2154 Rocket 4.2 01:23:46 10° NNW 01:29:55 66° ENE 01:29:55 66° ENE
Lacrosse 4 Rocket 4.1 01:26:19 10° NW 01:27:08 15° WNW 01:27:08 15° WNW
SL-16 R/B 2.9 01:27:39 10° NW 01:31:46 50° NW 01:31:46 50° NW
CZ-4C R/B 2.6 01:29:21 10° WNW 01:35:26 80° NW 01:35:26 80° NW
NOSS 3-2 (A) 3.9 01:31:47 10° WNW 01:38:39 73° NNE 01:46:17 10° E
COSMOS 2406 3.9 01:38:30 48° NW 01:38:51 49° NW 01:44:23 10° NE
Cosmos 2333 Rocket 3.6 01:39:29 10° NW 01:44:48 36° NNE 01:50:03 10° E
USA 238 DEB 3.6 01:37:59 10° WNW 01:44:54 86° NW 01:44:54 86° NW
USA 238 3.6 01:38:05 10° WNW 01:45:02 86° NW 01:45:02 86° NW
Nadezhda 1 Rocket 4.3 01:49:28 58° ENE 01:49:28 58° ENE 01:55:19 10° NNE
Cosmos 1140 Rocket 4.3 01:57:18 46° NE 01:57:18 46° NE 02:01:00 10° NNE
Cosmos 2322 Rocket 3.2 01:52:32 10° NW 01:56:04 38° WNW 01:56:04 38° WNW
Cosmos 540 Rocket 4.3 01:54:46 10° NNW 01:58:56 48° NNE 01:58:56 48° NNE
Cosmos 1607 4.2 01:56:41 10° WNW 02:01:34 58° NW 02:01:34 58° NW
COSMOS 2428 3.2 01:59:52 10° NW 02:05:34 57° NE 02:06:01 55° ENE
Cosmos 2237 Rocket 3.5 02:04:33 10° NW 02:09:50 38° NNE 02:15:05 10° E
Meteor 2-10 Rocket 4.5 02:12:01 41° ENE 02:12:01 41° ENE 02:15:46 10° NNE
Cosmos 2366 rocket 4.4 02:06:54 10° N 02:12:56 53° ENE 02:13:33 51° E
Cosmos 2082 Rocket 2.6 02:15:21 61° NE 02:15:21 61° NE 02:19:58 10° NE
CENTAUR R/B 3.1 02:07:39 10° W 02:14:29 68° N 02:22:19 10° E
ATLAS 5 CENTAUR R/B 3.9 02:09:52 10° WNW 02:19:07 24° E 02:21:28 10° ESE
NOSS 3-2 (C) 3.8 02:09:46 10° WNW 02:16:43 78° NNE 02:24:26 10° ESE
Cosmos 2237 4.5 02:16:46 10° NW 02:22:00 66° N 02:22:00 66° N
Cosmos 2218 Rocket 4.1 02:16:44 10° N 02:22:56 65° ENE 02:23:15 64° E
CZ-2C R/B 3.0 02:22:58 10° NNE 02:27:56 66° NNW 02:27:56 66° NNW
SL-16 R/B 3.8 02:24:00 10° NW 02:29:10 33° NNE 02:34:19 10° E
CZ-2C R/B 4.4 02:35:56 32° WNW 02:35:56 32° WNW 02:39:51 10° NNW
Meteor 1-11 Rocket 3.9 02:28:58 10° NNW 02:34:35 76° NE 02:34:35 76° NE
USA 229 DEB 3.6 02:36:33 83° SSW 02:36:46 86° SSE 02:43:52 10° ENE
USA 229 3.6 02:36:39 83° SSW 02:36:52 85° SSE 02:43:58 10° ENE
H-2A R/B 4.4 02:34:19 10° N 02:36:06 24° N 02:36:06 24° N
Cosmos 2341 Rocket 4.1 02:34:17 10° NNW 02:40:07 64° WNW 02:40:07 64° WNW
SL-08 R/B 3.9 02:42:55 57° NNE 02:42:55 57° NNE 02:47:02 10° NNW
SL-8 Rocket 3.9 02:35:50 10° NNW 02:42:06 88° NNW 02:42:06 88° NNW
Cosmos 614 Rocket 4.4 02:48:06 56° N 02:48:06 56° N 02:52:22 10° NNE
Cosmos 1980 Rocket 4.4 02:44:13 10° WNW 02:45:01 13° WNW 02:45:01 13° WNW
Cosmos 1741 Rocket 4.4 02:48:59 59° N 02:48:59 59° N 02:53:32 10° NNE
NOSS 3-1 (C) 3.7 02:48:43 61° ESE 02:48:43 61° ESE 02:55:16 10° ENE
Cosmos 2219 Rocket 2.6 02:43:04 10° NW 02:48:45 60° NE 02:50:57 36° ESE
Cosmos 2360 Rocket 3.2 02:43:22 10° NW 02:46:49 37° NW 02:46:49 37° NW
NOSS 3-1 (A) 3.8 02:53:38 56° SE 02:53:38 56° SE 03:00:11 10° ENE
Cosmos 1455 Rocket 4.3 02:51:35 10° N 02:55:45 37° ENE 02:55:45 37° ENE
Cosmos 2333 4.2 02:55:47 10° NW 03:01:13 78° NNW 03:01:13 78° NNW
USA 32 4.4 03:03:00 59° NNW 03:03:00 59° NNW 03:07:31 10° N
Cosmos 1782 4.4 03:04:33 35° NNE 03:04:33 35° NNE 03:06:57 10° NNE
Timation 2 Rocket 4.1 03:04:37 57° WNW 03:05:12 60° NW 03:11:12 10° NE
Cosmos 1833 Rocket 2.9 03:05:33 63° NW 03:05:34 63° NW 03:11:12 10° NE
NOSS 0 Rocket 4.1 03:00:09 10° NW 03:06:24 72° NE 03:12:39 10° SE
Meteor 1-10 Rocket 4.2 03:06:36 77° E 03:06:36 77° E 03:12:00 10° NNE
Meteor 2-19 Rocket 4.3 03:01:21 10° NNW 03:07:32 83° WSW 03:07:37 83° WSW
SL-16 R/B 2.9 03:05:54 33° SE 03:08:45 62° ENE 03:14:58 10° NNW
ATLAS 2AS CENTAUR R/B 3.6 03:08:41 39° SSE 03:10:10 42° SE 03:17:40 10° ENE
COSMOS 2455 4.1 03:04:45 10° NW 03:07:41 29° WNW 03:07:41 29° WNW
Cosmos 1486 Rocket 4.2 03:11:11 64° E 03:11:11 64° E 03:15:59 10° NE
Cosmos 44 3.9 03:11:54 54° E 03:11:54 54° E 03:16:19 10° ENE
ATLAS 3B R/B 4.1 03:05:15 10° WNW 03:08:12 24° WNW 03:08:12 24° WNW
Resurs 1-4 Rocket 4.1 03:08:32 10° NE 03:12:34 21° E 03:15:12 15° ESE
SL-16 R/B 4.2 03:12:20 10° NW 03:13:36 15° WNW 03:13:36 15° WNW
Cosmos 1538 Rocket 4.1 03:15:21 10° NNW 03:20:03 71° NNW 03:20:03 71° NNW
Cosmos 304 Rocket 4.1 03:16:31 10° NNW 03:20:59 65° NNE 03:20:59 65° NNE
CZ-4C R/B 3.9 03:17:53 10° WNW 03:20:33 25° WNW 03:20:33 25° WNW
Cosmos 1975 4.2 03:20:33 10° N 03:24:18 36° ENE 03:24:23 36° ENE
Cosmos 1975 Rocket 3.9 03:25:39 47° E 03:25:39 47° E 03:29:45 10° NNE
UNK 4.1 03:26:22 59° ENE 03:26:31 60° ENE 03:31:05 10° NNW
Lacrosse 5 rocket 4.0 03:29:15 13° ESE 03:29:15 13° ESE 03:30:27 10° ESE
CBERS-1 4.5 03:23:39 10° NNE 03:28:40 52° E 03:29:09 50° ESE
NOSS 3-2 (A) 3.7 03:22:45 10° WNW 03:29:48 70° SW 03:37:32 10° SE
Cosmos 2333 Rocket 2.2 03:24:04 10° NW 03:29:52 79° NE 03:35:35 10° SE
GEOS 3 Rocket 4.4 03:26:41 10° ENE 03:31:24 37° SE 03:31:24 37° SE
Cosmos 2181 Rocket 3.8 03:31:32 68° WSW 03:32:03 72° WNW 03:38:14 10° NNE
Cosmos 1544 Rocket 4.1 03:30:01 10° NNW 03:33:28 53° N 03:33:28 53° N
Okean 3 4.0 03:38:44 56° NE 03:38:44 56° NE 03:42:14 10° NNE
Cosmos 1809 Rocket 4.4 03:33:39 10° NNW 03:39:48 87° ENE 03:41:26 52° SSE
Meteor 2-6 Rocket 4.0 03:39:44 76° W 03:39:53 76° WNW 03:45:21 10° NNE
Cosmos 2322 Rocket 4.5 03:37:38 10° WNW 03:37:51 11° WNW 03:37:51 11° WNW
Cosmos 773 Rocket 3.9 03:36:47 10° NNW 03:42:06 83° ENE 03:43:11 58° SE
Cosmos 44 Rocket 3.4 03:43:16 77° NW 03:43:27 78° NNW 03:48:36 10° ENE
AQUA 4.0 03:40:58 10° NNE 03:45:44 65° ESE 03:46:00 63° ESE
COSMOS 2428 3.5 03:44:20 10° NW 03:47:57 36° WNW 03:47:57 36° WNW
Cosmos 1606 4.0 03:51:24 35° NNW 03:51:24 35° NNW 03:53:51 10° N
Cosmos 1674 Rocket 4.3 03:51:25 44° NNW 03:51:25 44° NNW 03:54:48 10° N
IRS-1C 4.4 03:45:21 10° NNE 03:50:41 62° ESE 03:51:50 50° SSE
CZ-3A R/B 3.5 03:52:57 32° SE 03:52:57 32° SE 03:55:53 10° ESE
Cosmos 1378 Rocket 3.7 03:53:20 70° NNW 03:53:20 70° NNW 03:57:23 10° NNE
Meteor 2-10 Rocket 4.2 03:53:10 40° WNW 03:53:10 40° WNW 03:57:53 10° N
Cosmos 2237 Rocket 2.1 03:48:51 10° NW 03:54:34 89° NE 04:00:14 10° SE
Meteor 1-5 Rocket 4.2 03:49:56 10° NNW 03:55:51 64° W 03:56:18 62° SW
Cosmos 2366 rocket 4.3 03:52:32 10° NNW 03:58:12 44° W 03:58:12 44° W
Cosmos 2082 Rocket 3.2 03:57:12 31° WNW 03:58:58 39° NNW 04:04:15 10° NE
ATLAS 5 CENTAUR R/B 2.3 04:00:54 56° S 04:00:54 56° S 04:06:18 10° SE
EO 1 Del DPAF 3.7 04:00:18 58° E 04:00:29 59° ENE 04:04:21 10° NNW
Cosmos 1500 3.8 03:59:16 10° N 04:03:08 56° ENE 04:03:25 54° E
Cosmos 1354 Rocket 3.9 04:03:37 68° SSW 04:04:20 88° ESE 04:09:44 10° NNE
CENTAUR R/B 2.9 03:58:30 10° WNW 04:05:47 87° NNE 04:13:54 10° ESE
PSLV R/B 4.3 04:02:36 10° N 04:06:40 44° NW 04:06:40 44° NW
NOSS 3-2 (C) 3.8 04:00:44 10° WNW 04:07:43 60° SW 04:15:24 10° SSE
CZ-2C R/B 4.2 04:03:45 10° N 04:08:10 24° NW 04:09:27 22° WNW
Cosmos 1980 3.5 04:02:39 10° NW 04:08:21 76° SW 04:14:02 10° SSE
ARIANE 5 R/B 3.1 04:03:29 10° NNE 04:08:31 51° E 04:10:30 33° SSE
Cosmos 1535 Rocket 4.3 04:02:22 10° NNW 04:08:32 84° W 04:11:21 35° S
IRS-P3 4.0 04:03:23 10° NNE 04:08:45 76° WNW 04:09:35 62° SW
ADEOS 3.7 04:06:29 10° NNE 04:11:44 69° ESE 04:13:19 44° S
UNKNOWN OBJECT B 4.5 04:09:24 10° NNE 04:12:57 30° E 04:14:36 22° SE
Meteor 1-12 Rocket 4.2 04:07:04 10° NNW 04:13:05 78° WSW 04:15:29 38° S
SL-16 R/B 2.4 04:08:27 10° NW 04:14:11 71° NE 04:19:53 10° SE
Meteor 2-16 Rocket 4.3 04:08:27 10° NNW 04:14:38 83° W 04:17:51 30° S
MOZ.5/SAFIR/RUBIN 5/SL-8 4.3 04:10:20 10° SE 04:15:00 61° ENE 04:19:44 10° NNW
Cosmos 1238 Rocket 4.0 04:13:04 44° SSW 04:15:24 85° WNW 04:22:17 10° NNE
Cosmos 1743 3.7 04:13:06 10° N 04:16:49 45° ENE 04:19:14 19° SE
Cosmos 2219 4.0 04:16:21 30° SSE 04:18:33 45° ESE 04:23:54 10° NE
NPP 3.6 04:13:16 10° NNE 04:18:40 74° WNW 04:19:49 55° SW
Cosmos 2112 Rocket 4.0 04:14:08 10° NNW 04:19:31 86° NE 04:24:50 10° SSE
Nadezhda 3 Rocket 4.0 04:17:18 36° S 04:20:05 82° E 04:26:23 10° NNE
Meteor 1-27 Rocket 3.8 04:19:11 51° WSW 04:20:13 59° WNW 04:25:55 10° NNE
Cosmos 1680 Rocket 3.4 04:18:48 10° NNW 04:24:09 83° WSW 04:29:27 10° SSE
CZ-2D R/B 2.5 04:22:31 10° NNE 04:27:42 58° ESE 04:30:29 27° S
USA 229 DEB 4.0 04:23:59 26° W 04:28:09 68° N 04:35:15 10° E
USA 229 4.0 04:24:06 26° W 04:28:14 68° N 04:35:20 10° E
Cosmos 2360 Rocket 4.4 04:28:23 10° WNW 04:28:33 11° WNW 04:28:33 11° WNW
Okean 1 4.1 04:30:45 33° SSE 04:32:10 49° E 04:36:03 10° NNE
Cosmos 2219 Rocket 2.4 04:27:16 10° NW 04:32:30 45° WSW 04:32:30 45° WSW
MTI 4.3 04:33:48 56° N 04:33:48 56° N 04:36:31 10° NNW
Cosmos 1503 Rocket 4.1 04:32:22 49° WSW 04:33:42 68° NW 04:39:06 10° NNE
Cosmos 1455 Rocket 3.8 04:29:28 10° NNW 04:32:51 38° WNW 04:32:51 38° WNW
Meteor 2-14 Rocket 4.4 04:27:45 10° NNW 04:33:45 62° W 04:36:15 35° SSW
ARGOS Delta rocket 4.3 04:29:44 10° NNE 04:34:28 60° E 04:37:16 25° S
Cosmos 1812 3.0 04:35:15 48° SSE 04:36:07 63° E 04:39:58 10° NNE
Cosmos 2084 Rocket 3.3 04:35:34 53° NW 04:36:17 69° NNE 04:40:09 10° E
Cosmos 1242 Rocket 4.3 04:37:15 22° NW 04:37:15 22° NW 04:39:32 10° N
Cosmos 2227 Rocket 4.1 04:32:17 10° SSE 04:36:45 25° ESE 04:41:14 10° NE
Cosmos 1833 4.1 04:36:03 43° SW 04:37:59 86° SE 04:43:45 10° NE
Cosmos 2058 Rocket 4.4 04:35:01 10° N 04:39:10 39° ENE 04:43:16 10° SE
NOSS 3-1 (C) 3.8 04:36:07 33° W 04:39:17 75° NNW 04:46:40 10° ENE
NOSS 3-1 (A) 3.7 04:41:04 34° W 04:44:13 77° NNW 04:51:35 10° ENE
Cosmos 2297 Rocket 4.3 04:41:58 10° SSE 04:46:12 22° ESE 04:50:26 10° NE
Aureole 2 Rocket 3.2 04:42:44 10° NNW 04:46:33 55° NE 04:49:59 10° SE
ERS-2 2.3 04:44:21 10° NNE 04:48:05 69° ESE 04:49:01 46° S
Cosmos 1833 Rocket 4.0 04:47:14 18° WNW 04:50:30 31° NNW 04:55:32 10° NE
Cosmos 44 3.7 04:50:19 35° W 04:52:31 63° NNW 04:57:41 10° ENE
Cosmos 724 4.4 04:46:32 10° NW 04:52:39 62° SW 04:58:47 10° SSE
NOSS 0 Rocket 4.3 04:46:53 10° NW 04:52:39 41° WSW 04:58:24 10° S
SL-16 R/B 2.9 04:51:01 34° SW 04:52:44 41° W 04:58:39 10° NNW
Resurs 1-4 Rocket 2.1 04:47:51 10° NNE 04:53:13 84° ESE 04:56:17 27° SSW
Cosmos 1821 Rocket 4.2 04:49:02 10° NNW 04:55:09 50° W 04:58:24 27° SSW
Cosmos 1153 Rocket 4.5 04:50:04 10° NNW 04:56:25 90° ENE 05:02:49 10° S
Cosmos 1934 Rocket 4.1 04:50:54 10° NNW 04:57:04 56° W 05:01:12 21° SSW
Cosmos 1943 4.3 04:52:00 10° NW 04:57:26 45° NNE 05:02:50 10° ESE
Cosmos 1605 Rocket 3.9 04:54:18 10° NNW 05:00:24 68° W 05:06:31 10° S
Cosmos 968 Rocket 3.6 04:57:44 28° SSW 05:00:28 71° ESE 05:05:36 10° NE
Cosmos 1461 3.5 04:59:02 33° S 05:00:36 50° SE 05:04:44 10° ENE
ATLAS 2AS CENTAUR R/B 3.1 04:56:08 30° SW 05:00:41 86° SSE 05:08:55 10° ENE
Cosmos 1975 3.6 04:57:10 10° NNW 05:00:10 34° WNW 05:00:10 34° WNW
Cosmos 1603 4.1 04:55:43 10° NW 05:01:29 68° NE 05:07:11 10° SE
IRS-1D 3.6 04:57:32 10° NNE 05:02:56 78° WNW 05:05:49 28° SSW
Cosmos 1975 Rocket 3.9 05:02:49 33° W 05:03:28 35° WNW 05:07:38 10° N
Meteor 1-15 Rocket 4.5 04:59:46 10° NNW 05:05:22 71° ENE 05:10:57 10° SSE
Thor Agena Rocket 3.7 05:00:49 10° SSE 05:06:07 82° ENE 05:11:27 10° NNW
Lacrosse 5 rocket 2.5 05:04:59 27° SSW 05:06:30 35° SSE 05:10:33 10° E
Cosmos 923 Rocket 4.4 05:03:10 10° NW 05:08:07 39° WSW 05:11:36 18° SSW
GEOS 3 Rocket 3.5 05:04:46 10° ENE 05:09:56 87° NNW 05:12:30 31° WSW
Cosmos 1025 Rocket 4.2 05:06:11 10° SSE 05:10:16 42° E 05:14:22 10° NNE
Okean O Rocket 2.5 05:06:12 10° NNE 05:10:30 48° E 05:14:46 10° S
Spot 4 Rocket 4.2 05:07:46 10° NNE 05:12:48 54° WNW 05:15:06 30° SW
Cosmos 2098 Rocket 4.0 05:10:16 10° N 05:13:28 41° ENE 05:17:21 10° SE
Cosmos 2333 Rocket 2.8 05:08:43 10° NW 05:13:44 32° WSW 05:18:43 10° S
Cosmos 1606 Rocket 3.4 05:10:36 10° NNW 05:15:04 84° WSW 05:19:26 10° S
Cosmos 1536 Rocket 3.6 05:16:14 34° SW 05:17:54 56° WNW 05:22:13 10° N
Cosmos 1174 2.9 05:17:36 51° WNW 05:18:11 71° SW 05:21:11 10° SE
SeaSat 1 3.4 05:14:29 10° ESE 05:19:15 50° NE 05:24:04 10° NW
Cosmos 1666 2.6 05:20:43 10° NNW 05:24:38 81° W 05:28:31 10° S
Cosmos 44 Rocket 4.1 05:21:59 19° WNW 05:25:32 49° N 05:30:30 10° ENE
Cosmos 1726 Rocket 3.4 05:21:36 10° NNW 05:26:03 79° WSW 05:30:26 10° S
NOSS 2-3 (E) 4.3 05:26:24 26° SW 05:29:43 85° SSE 05:36:25 10° ENE
Cosmos 2344 4.2 05:27:00 15° SSW 05:33:47 63° SE 05:43:28 10° ENE
Cosmos 2061 Rocket 4.0 05:29:11 10° NNW 05:35:29 84° W 05:41:51 10° S
CZ-4B R/B 3.6 05:30:34 10° NNE 05:35:55 63° ESE 05:41:20 10° S
Meteor 1-19 Rocket 4.5 05:32:04 10° S 05:37:41 72° ESE 05:43:16 10° NNE
Cosmos 2237 Rocket 3.0 05:33:25 10° NW 05:38:04 27° WSW 05:42:43 10° SSW
Cosmos 2100 Rocket 3.9 05:32:17 10° NNW 05:38:30 76° W 05:44:45 10° S
Cosmos 1500 4.4 05:35:26 10° NW 05:38:22 23° W 05:38:22 23° W
IRAS Rocket 4.5 05:33:16 10° NNE 05:38:39 52° WNW 05:42:20 20° SW
Cosmos 192 4.3 05:33:39 10° NNW 05:38:39 84° WSW 05:43:37 10° SSE
Cosmos 1802 Rocket 3.9 05:32:34 10° NNW 05:38:50 87° W 05:45:00 10° S
Cosmos 292 Rocket 4.1 05:34:39 10° NW 05:39:15 42° WSW 05:43:50 10° S
CZ-2C R/B 4.1 05:35:52 10° S 05:40:13 42° W 05:44:42 10° NNW
Lacrosse 5 3.7 05:36:54 10° S 05:40:53 24° SE 05:44:53 10° E
ATLAS 5 CENTAUR R/B 3.4 05:42:41 20° W 05:44:09 22° WSW 05:48:44 10° SSW
Uosat 12 SS-18 rocket 4.0 05:41:50 24° WSW 05:44:25 89° SE 05:48:55 10° ENE
Cosmos 2082 Rocket 3.8 05:39:40 10° WNW 05:44:29 28° N 05:49:18 10° ENE
Okean 1-7 Rocket 3.5 05:41:30 14° SSW 05:45:14 69° WNW 05:49:42 10° N
Cosmos 1892 Rocket 4.2 05:43:04 10° S 05:47:29 59° E 05:51:55 10° NNE
ARIANE 5 R/B 3.1 05:42:49 10° N 05:47:37 41° WNW 05:50:50 19° WSW
UNKNOWN OBJECT B 3.2 05:43:52 10° N 05:47:40 46° WNW 05:50:06 20° SW
CZ-2D R/B 3.5 05:43:45 10° N 05:47:47 58° WNW 05:50:44 17° SW
ADEOS II 3.1 05:45:03 10° NNE 05:50:10 49° E 05:55:17 10° S
ADEOS 4.4 05:46:23 10° N 05:51:02 33° NW 05:54:06 18° WSW
Cosmos 1725 Rocket 4.3 05:44:45 10° NNW 05:51:07 76° ENE 05:57:25 10° SSE
Cosmos 1777 Rocket 4.0 05:46:46 14° SSW 05:51:23 86° NW 05:56:43 10° NNE
Meteor 2-4 Rocket 4.1 05:46:39 10° S 05:52:31 72° ESE 05:58:29 10° NNE
Cosmos 1743 3.6 05:49:15 10° NNW 05:52:33 27° W 05:54:18 19° SW
USA 129 1.2 05:52:40 10° SSE 05:54:25 71° ENE 05:55:58 10° NNW
DNEPR-1 R/B 4.0 05:49:38 10° WNW 05:55:33 89° NE 06:00:21 10° ESE
ADEOS Rocket 3.7 05:48:33 10° NNE 05:56:06 73° ESE 06:02:55 10° S
CENTAUR R/B 3.2 05:49:12 10° WNW 05:56:20 49° SW 06:04:07 10° SSE
Cosmos 2228 3.0 05:52:56 10° NNW 05:57:21 70° W 06:01:44 10° S
SL-16 R/B 2.7 05:52:53 10° NW 05:58:04 37° WSW 06:03:13 10° S
NOSS 2-3 (C) 4.4 05:54:13 18° WSW 05:58:26 83° NNW 06:05:17 10° ENE
Meteor 2-8 Rocket 4.5 05:52:33 10° SSW 05:58:40 64° WNW 06:04:45 10° NNE
Cosmos 1812 Rocket 4.0 05:55:30 10° N 05:59:56 68° ENE 06:04:23 10° SSE
Meteor 2-9 Rocket 4.4 05:55:30 10° NNW 06:00:53 51° W 06:06:22 10° S
Cosmos 2219 3.4 05:58:17 17° WSW 06:02:40 60° NW 06:08:16 10° NE
RESURS DK-1 3.4 05:59:03 10° SSW 06:03:00 45° ESE 06:06:59 10° NE
CZ-2D R/B 2.7 06:02:52 10° N 06:07:40 38° NW 06:11:48 13° WSW
Okean 1 4.3 06:06:29 17° WSW 06:08:48 29° WNW 06:12:22 10° N
Cosmos 1346 Rocket 2.9 06:04:53 10° SSW 06:08:52 82° ESE 06:12:57 10° NNE
Meteor 1-13 Rocket 4.3 06:04:16 10° SSW 06:10:01 64° WNW 06:15:41 10° NNE
Cosmos 1812 4.1 06:10:27 16° W 06:12:22 23° WNW 06:15:32 10° N
PSLV R/B 4.1 06:09:17 10° N 06:13:16 53° WNW 06:17:17 10° SW
Cosmos 2016 Rocket 4.0 06:07:36 10° NNW 06:13:56 65° W 06:20:11 10° S
Okean-O 3.1 06:09:40 10° NNE 06:14:07 64° ESE 06:18:32 10° S
Cosmos 2219 Rocket 4.0 06:13:25 10° WNW 06:14:04 11° W 06:14:04 11° W
Cosmos 2084 Rocket 3.5 06:12:09 11° WNW 06:15:43 46° SW 06:19:30 10° SE
Cosmos 2058 Rocket 3.5 06:13:07 10° NNW 06:17:12 39° W 06:21:15 10° SSW
Cosmos 2084 3.5 06:15:36 12° SW 06:19:07 62° SSE 06:22:57 10° ENE
Cosmos 2173 Rocket 4.2 06:13:45 10° NNW 06:19:35 48° W 06:25:23 10° SSW
USA 229 DEB 3.9 06:12:37 10° WNW 06:19:41 81° NNE 06:26:51 10° ESE
USA 229 3.9 06:12:43 10° WNW 06:19:47 81° NNE 06:26:56 10° ESE
Cosmos 2227 Rocket 2.3 06:14:27 10° SW 06:20:09 84° SE 06:25:52 10° NE
ERS-2 3.6 06:18:38 10° N 06:21:32 22° NW 06:23:50 13° W
Cosmos 468 4.5 06:16:18 10° NW 06:21:33 75° WSW 06:26:46 10° SSE
SL-08 R/B 4.5 06:15:39 10° NNW 06:21:47 67° W 06:28:00 10° S
Aureole 2 Rocket 3.5 06:18:51 10° NW 06:21:55 24° WSW 06:24:45 10° SSW
NOSS 2-3 (D) 4.5 06:18:50 13° WSW 06:23:52 75° NNW 06:30:47 10° ENE
Cosmos 1727 Rocket 4.2 06:17:51 10° SW 06:24:00 53° WNW 06:30:14 10° N
Meteor 1-22 Rocket 4.4 06:21:01 10° NNW 06:26:26 76° ENE 06:32:00 10° SSE
Cosmos 1459 Rocket 4.4 06:21:36 10° NNW 06:27:36 44° W 06:33:33 10° SSW
Cosmos 2297 Rocket 2.4 06:23:50 10° SSW 06:29:29 77° SE 06:35:10 10° NE
NOSS 3-4 (A) 3.9 06:24:21 10° SW 06:30:44 68° SE 06:37:27 10° ENE
NOSS 3-1 (C) 4.1 06:24:05 10° WNW 06:30:49 71° N 06:38:31 10° E
NOSS 3-4 (C) 3.9 06:24:27 10° SW 06:30:50 67° SE 06:37:34 10° ENE
IRS-1C Rocket 4.3 06:25:51 10° NNE 06:31:01 54° WNW 06:36:10 10° SW
Resurs 1-4 Rocket 3.2 06:28:09 10° N 06:32:39 29° NW 06:37:08 10° WSW
Cosmos 1766 4.1 06:29:44 10° N 06:33:44 58° ENE 06:37:42 10° SSE
Cosmos 44 4.1 06:29:16 10° WNW 06:34:27 49° N 06:39:24 10° ENE
CZ-4B DEB 4.3 06:29:22 10° NNE 06:34:48 65° WNW 06:40:14 10° SW
CZ-4B R/B 3.3 06:30:48 10° N 06:34:56 50° WNW 06:39:14 10° SW
COS B Rocket 3.2 06:33:20 10° SW 06:35:30 26° W 06:37:51 10° NNW
Meteor 2-17 Rocket 4.4 06:29:37 10° NNW 06:35:46 76° W 06:41:54 10° S
NOSS 3-1 (A) 4.1 06:29:03 10° WNW 06:35:47 70° N 06:43:26 10° E
Cosmos 1833 Rocket 4.3 06:31:07 10° NW 06:36:00 29° N 06:40:52 10° ENE
Cosmos 2298 Rocket 4.4 06:31:43 10° SSW 06:37:00 69° ESE 06:42:19 10° NE
SL-16 R/B 4.3 06:36:53 10° W 06:38:15 11° WNW 06:39:36 10° WNW
Meteor 1-31 Rocket 3.2 06:34:25 10° NNE 06:38:18 67° ESE 06:42:13 10° S
Cosmos 1461 3.2 06:35:32 10° WSW 06:39:49 60° NNW 06:43:59 10° ENE
COSMO-SKYMED 1 2.5 06:35:56 10° S 06:40:16 71° WSW 06:44:39 10° NNW
Cosmos 1943 3.2 06:36:14 10° NW 06:41:51 68° WSW 06:47:25 10° SSE
Cosmos 2123 Rocket 4.2 06:36:00 10° S 06:42:11 79° E 06:48:24 10° NNE
Cosmos 968 Rocket 4.3 06:37:57 10° WSW 06:42:42 36° NW 06:47:27 10° NNE
Cosmos 1269 Rocket 4.0 06:38:18 10° NW 06:43:35 67° WSW 06:48:49 10° SSE
AVUM R/B 3.1 06:41:11 10° NW 06:43:42 38° SW 06:46:02 10° SSE
Lacrosse 5 rocket 1.9 06:40:55 10° WSW 06:45:24 57° S 06:49:40 10° E
Cosmos 1603 4.2 06:40:07 10° NW 06:45:25 39° WSW 06:50:40 10° S
PAYLOAD B 4.5 06:41:09 10° NNE 06:46:30 52° WNW 06:51:48 10° SW
Cosmos 1048 Rocket 3.9 06:41:26 10° NW 06:46:37 71° WSW 06:51:43 10° SSE
Okean O Rocket 2.3 06:42:47 10° N 06:46:50 36° WNW 06:50:51 10° SW
GEOS 3 Rocket 4.1 06:42:51 10° ENE 06:47:51 54° N 06:52:51 10° W
Cosmos 1025 Rocket 3.7 06:43:59 10° SW 06:47:59 36° WNW 06:52:00 10° N
Ariane Rocket 4.2 06:43:56 10° NNE 06:48:55 48° E 06:53:51 10° S
Cosmos 2150 Rocket 4.2 06:46:17 10° SSW 06:51:25 76° ESE 06:56:37 10° NE
ATLAS 2AS CENTAUR R/B 3.4 06:44:09 10° W 06:52:16 70° N 07:00:25 10° E
Cosmos 2098 Rocket 3.7 06:52:02 10° NW 06:54:56 26° W 06:58:20 10° SSW
COSMOS 2406 3.8 06:50:00 10° NW 06:55:41 63° NE 07:01:19 10° SE
SeaSat 1 2.6 06:52:01 10° SSE 06:56:51 53° WSW 07:01:43 10° NW
